Tracking 29528 objects as of 12-Sep-2024
HD Live streaming from Space Station
objects crossing your sky now

ION SCV-010

Track ION SCV-010 now!
10-day predictions
ION SCV-010 is classified as:


NORAD ID: 56192
Int'l Code: 2023-054Q
Perigee: 511.4 km
Apogee: 533.5 km
Inclination: 97.5 °
Period: 94.9 minutes
Semi major axis: 6893 km
RCS: Unknown
Launch date: April 15, 2023
Source: Italy (IT)
Launch site: AIR FORCE WESTERN TEST RANGE (AFWTR)

Uplink (MHz):
Downlink (MHz): 401.415
Beacon (MHz):
Mode: 1200bps FSK
Call sign:
Status: Active

Your satellite tracking list
Your tracking list is empty




NASA's NSSDC Master Catalog

Two Line Element Set (TLE):
1 56192U 23054Q   24255.65079097  .00012097  00000-0  61534-3 0  9999
2 56192  97.4545 142.8969 0016084 296.3558  63.6023 15.16872652 78306
Source of the keplerian elements: AFSPC